STARLINK-5703, 55593

Orbit data source: Space-Track

STARLINK-5703, 55593 is a payload satellite owned by SpaceX/Seattle (US) in LEO that was launched on Sun, 12 Feb 2023 UTC via an FALCON 9 launch vehicle from the Air Force Eastern Test Range (AFETR). Payload-class satellites include a variety of spacecraft equipped with specific instruments for various scientific and technological missions. These include communications satellites like Starlink; space stations such as the ISS; scientific satellites like the Hubble; Earth observation satellites from companies like Planet Labs, Umbra, and HawkEye 360; GPS; miniature CubeSats for education and research; and military/defense satellites.

Loading next visibility...
Identifier
55593, 2023-020AA
Orbit
LEO
Country
Flag of USUS
Related business
Manufacturer
SpaceX/Seattle
Mission
Operational Commercial Communications
Bus & Motor
STARLINK, Unknown motor
Mass
305 kg wet, ~290 kg dry
Launch date (UTC)
2023-02-12 (4 years ago)
Launch vehicle
FALCON 9
Launch site
Air Force Eastern Test Range (AFETR)
Object type
Payload
Rocket body
Debris
Shape & HBR
Box + 1 Pan, 10.1 m
Radar Cross Section
13.562 m², Large (>1 m²)

Expand to show TLE details & history
Last TLE update: 14 hours ago

TLE from 14 hours ago
0 STARLINK-5703
1 55593U 23020AA  26263.91175564 -.00000407  00000-0 -52533-5 0  9997
2 55593  43.0028 342.3333 0001063 268.6274  91.4456 15.27574363198776
Epoch: 2026-09-20T21:52Z
TLE epoch observation values (Epoch: 2026-09-20T21:52:55.687Z)
Latitude
-0°
Longitude
14.30213°
Altitude
482.86 km
Speed
7.626 km/s
True Right ascension
22h 49m 19s
True Declination
0° 00' 00"
Sunlit
Object was in full shadow at epoch
Visualization orbit readout
Latitude
Unknown
Longitude
Unknown
Altitude
Unknown
Speed
Unknown
Apparent Right ascension
Unknown
Apparent Declination
Unknown
Sunlit
N/A
Visualization observer readout
Local Sidereal Time
04:57:31
Azimuth
Unknown
Elevation
Unknown
Doppler factor
Unknown
Orbital elements
Apogee altitude
485.74 km
Perigee altitude
484.281 km
Semi-major axis
6,863.148 km
Eccentricity
0.00011
Inclination
43.0028°
RAAN
342.3333°
Arg. of periapsis
268.6274°
True anomaly
91.45778°
Mean anomaly
91.4456°
Eccentric anomaly
91.45169°
Mean motion
3.81732 °/min
Orbital period
94.31 mins
BSTAR
-0.0000052533
Loading maneuver chart data...
Computing Atmospheric mass density...
Loading historical data...
Loading historical data...
Loading historical data...
Loading historical data...
Loading historical data...
Loading historical data...
Loading historical data...

Documentation

Showing up to 5 results
|